Location: Spondin
(51.8528°N, 111.6118°W)
Time: 12:48:19
(UTC+00:00)

ISS - Visible Passes

Search period start: 22 January 2022 00:00
Search period end: 01 February 2022 00:00
Orbit: 413 x 422 km, 51.6° (Epoch: 22 January)

Date Brightness Start Highest point End Pass type
(mag) Time Alt. Az. Time Alt. Az. Time Alt. Az.
22 Jan -3.0 01:47:05 10° SW 01:50:12 37° SSE 01:50:36 35° SE visible
22 Jan -0.2 03:23:26 10° W 03:23:32 11° W 03:23:32 11° W visible
23 Jan -2.4 00:59:28 10° SSW 01:02:20 27° SSE 01:04:39 13° E visible
23 Jan -2.3 02:35:29 10° WSW 02:37:35 36° WSW 02:37:35 36° WSW visible
24 Jan -3.6 01:47:34 10° WSW 01:50:52 62° SSE 01:51:36 46° ESE visible
24 Jan -0.3 03:24:15 10° W 03:24:32 12° W 03:24:32 12° W visible
25 Jan -3.2 00:59:42 10° SW 01:02:56 48° SSE 01:05:35 14° E visible
25 Jan -2.4 02:36:16 10° W 02:38:31 40° W 02:38:31 40° W visible
26 Jan -3.9 01:48:16 10° W 01:51:37 84° S 01:52:30 46° E visible
26 Jan -0.4 03:25:03 10° W 03:25:26 13° W 03:25:26 13° W visible
27 Jan -3.7 01:00:19 10° WSW 01:03:39 74° SSE 01:06:29 14° E visible
27 Jan -2.6 02:37:04 10° W 02:39:25 42° W 02:39:25 42° W visible
28 Jan -3.9 01:49:05 10° W 01:52:26 88° S 01:53:25 43° E visible
28 Jan -0.5 03:25:52 10° W 03:26:21 13° W 03:26:21 13° W visible
29 Jan -3.8 01:01:05 10° W 01:04:26 89° S 01:07:27 12° E visible
29 Jan -2.7 02:37:53 10° W 02:40:23 44° WSW 02:40:23 44° WSW visible
30 Jan -3.7 01:49:53 10° W 01:53:13 73° SSW 01:54:28 35° ESE visible
30 Jan -0.5 03:26:51 10° W 03:27:24 13° W 03:27:24 13° W visible
31 Jan -3.7 01:01:54 10° W 01:05:15 83° S 01:08:36 10° E visible
31 Jan -2.4 02:38:45 10° W 02:41:32 34° SW 02:41:32 34° SW visible
